Time,TemperatureF,DewpointF,PressureIn,WindDirection,WindDirectionDegrees,WindSpeedMPH,WindSpeedGustMPH,Humidity,HourlyPrecipIn,Conditions,Clouds,dailyrainin,SoftwareType,DateUTC
2013-01-02 00:03:00,21.0,9.0,29.97,NNW,345,4.0,13.0,58,0.00,,,-99.99,,2013-01-02 05:03:00,
2013-01-02 00:12:00,21.0,9.0,29.97,NNW,345,4.0,13.0,58,0.00,,,-99.99,,2013-01-02 05:12:00,
2013-01-02 00:22:00,21.0,10.0,29.96,WNW,297,3.0,7.0,61,0.00,,,-99.99,,2013-01-02 05:22:00,
2013-01-02 00:33:00,21.0,10.0,29.96,North,349,5.0,13.0,61,0.00,,,-99.99,,2013-01-02 05:33:00,
2013-01-02 00:42:00,21.0,10.0,29.96,North,349,5.0,13.0,61,0.00,,,-99.99,,2013-01-02 05:42:00,
2013-01-02 00:53:00,20.0,9.0,29.96,WNW,301,4.0,11.0,62,0.00,,,-99.99,,2013-01-02 05:53:00,
2013-01-02 01:02:00,20.0,9.0,29.96,WNW,301,2.0,8.0,63,0.00,,,-99.99,,2013-01-02 06:02:00,
2013-01-02 01:12:00,20.0,9.0,29.96,WNW,301,2.0,8.0,63,0.00,,,-99.99,,2013-01-02 06:12:00,
2013-01-02 01:22:00,20.0,10.0,29.96,WNW,300,2.0,6.0,64,0.00,,,-99.99,,2013-01-02 06:22:00,
2013-01-02 01:32:00,20.0,10.0,29.96,NNW,330,1.0,4.0,65,0.00,,,-99.99,,2013-01-02 06:32:00,
2013-01-02 01:42:00,20.0,10.0,29.96,NNW,330,1.0,4.0,65,0.00,,,-99.99,,2013-01-02 06:42:00,
2013-01-02 01:53:00,19.0,9.0,29.96,NE,44,1.0,5.0,65,0.00,,,-99.99,,2013-01-02 06:53:00,
2013-01-02 02:02:00,19.0,10.0,29.97,NNW,327,2.0,6.0,66,0.00,,,-99.99,,2013-01-02 07:02:00,
2013-01-02 02:12:00,19.0,10.0,29.97,NNW,327,2.0,6.0,66,0.00,,,-99.99,,2013-01-02 07:12:00,
2013-01-02 02:22:00,19.0,10.0,29.98,WNW,295,2.0,5.0,67,0.00,,,-99.99,,2013-01-02 07:22:00,
2013-01-02 02:32:00,19.0,10.0,29.98,WNW,293,3.0,6.0,66,0.00,,,-99.99,,2013-01-02 07:32:00,
2013-01-02 02:42:00,19.0,10.0,29.98,WNW,293,3.0,6.0,66,0.00,,,-99.99,,2013-01-02 07:42:00,
2013-01-02 02:52:00,19.0,11.0,29.99,NW,323,1.0,5.0,70,0.00,,,-99.99,,2013-01-02 07:52:00,
2013-01-02 03:02:00,19.0,11.0,29.98,NW,304,1.0,3.0,69,0.00,,,-99.99,,2013-01-02 08:02:00,
2013-01-02 03:12:00,19.0,11.0,29.98,NW,304,1.0,3.0,69,0.00,,,-99.99,,2013-01-02 08:12:00,
2013-01-02 03:22:00,18.0,10.0,29.98,NW,309,1.0,4.0,69,0.00,,,-99.99,,2013-01-02 08:22:00,
2013-01-02 03:32:00,18.0,10.0,29.98,WNW,300,1.0,4.0,70,0.00,,,-99.99,,2013-01-02 08:32:00,
2013-01-02 03:42:00,18.0,10.0,29.98,WNW,300,1.0,4.0,70,0.00,,,-99.99,,2013-01-02 08:42:00,
2013-01-02 03:52:00,18.0,11.0,29.98,West,280,1.0,2.0,72,0.00,,,-99.99,,2013-01-02 08:52:00,
2013-01-02 04:02:00,17.0,10.0,29.98,WNW,282,1.0,3.0,72,0.00,,,-99.99,,2013-01-02 09:02:00,
2013-01-02 04:12:00,17.0,10.0,29.98,WNW,282,1.0,3.0,72,0.00,,,-99.99,,2013-01-02 09:12:00,
2013-01-02 04:22:00,16.0,9.0,29.98,WNW,287,0.0,1.0,72,0.00,,,-99.99,,2013-01-02 09:22:00,
2013-01-02 04:32:00,16.0,9.0,29.98,WNW,287,0.0,1.0,72,0.00,,,-99.99,,2013-01-02 09:32:00,
2013-01-02 04:43:00,16.0,9.0,29.98,WNW,287,0.0,1.0,72,0.00,,,-99.99,,2013-01-02 09:43:00,
2013-01-02 04:53:00,16.0,9.0,29.98,WNW,287,0.0,1.0,72,0.00,,,-99.99,,2013-01-02 09:53:00,
2013-01-02 05:02:00,16.0,9.0,29.97,WNW,287,0.0,1.0,72,0.00,,,-99.99,,2013-01-02 10:02:00,
2013-01-02 05:12:00,16.0,9.0,29.98,WNW,287,0.0,1.0,72,0.00,,,-99.99,,2013-01-02 10:12:00,
2013-01-02 05:22:00,16.0,9.0,29.98,WNW,287,0.0,1.0,72,0.00,,,-99.99,,2013-01-02 10:22:00,
2013-01-02 05:32:00,16.0,9.0,29.99,WNW,287,0.0,1.0,72,0.00,,,-99.99,,2013-01-02 10:32:00,
2013-01-02 05:42:00,16.0,9.0,29.99,WNW,287,0.0,1.0,72,0.00,,,-99.99,,2013-01-02 10:42:00,
2013-01-02 05:52:00,16.0,9.0,29.99,WNW,287,0.0,1.0,72,0.00,,,-99.99,,2013-01-02 10:52:00,
2013-01-02 06:02:00,16.0,9.0,29.98,WNW,287,0.0,1.0,72,0.00,,,-99.99,,2013-01-02 11:02:00,
2013-01-02 06:12:00,16.0,9.0,29.98,WNW,287,0.0,1.0,72,0.00,,,-99.99,,2013-01-02 11:12:00,
2013-01-02 06:22:00,16.0,9.0,29.98,WNW,287,0.0,1.0,72,0.00,,,-99.99,,2013-01-02 11:22:00,
2013-01-02 06:33:00,16.0,9.0,29.98,WNW,287,0.0,1.0,72,0.00,,,-99.99,,2013-01-02 11:33:00,
2013-01-02 06:43:00,16.0,9.0,29.98,WNW,287,0.0,1.0,72,0.00,,,-99.99,,2013-01-02 11:43:00,
2013-01-02 06:53:00,16.0,9.0,29.98,WNW,287,0.0,1.0,72,0.00,,,-99.99,,2013-01-02 11:53:00,
2013-01-02 07:03:00,16.0,9.0,29.98,WNW,287,0.0,1.0,72,0.00,,,-99.99,,2013-01-02 12:03:00,
2013-01-02 07:12:00,16.0,9.0,29.98,WNW,287,0.0,1.0,72,0.00,,,-99.99,,2013-01-02 12:12:00,
2013-01-02 07:22:00,16.0,9.0,29.98,WNW,287,0.0,1.0,72,0.00,,,-99.99,,2013-01-02 12:22:00,
2013-01-02 07:33:00,16.0,9.0,29.98,WNW,287,0.0,1.0,72,0.00,,,-99.99,,2013-01-02 12:33:00,
2013-01-02 07:42:00,16.0,9.0,29.98,WNW,287,0.0,1.0,72,0.00,,,-99.99,,2013-01-02 12:42:00,
2013-01-02 07:53:00,16.0,9.0,29.98,WNW,287,0.0,1.0,72,0.00,,,-99.99,,2013-01-02 12:53:00,
2013-01-02 08:02:00,16.0,9.0,29.98,WNW,287,0.0,1.0,72,0.00,,,-99.99,,2013-01-02 13:02:00,
2013-01-02 08:12:00,16.0,9.0,29.98,WNW,287,0.0,1.0,72,0.00,,,-99.99,,2013-01-02 13:12:00,
2013-01-02 08:22:00,16.0,9.0,29.97,WNW,287,0.0,1.0,72,0.00,,,-99.99,,2013-01-02 13:22:00,
2013-01-02 08:32:00,16.0,9.0,29.97,WNW,287,0.0,1.0,72,0.00,,,-99.99,,2013-01-02 13:32:00,
2013-01-02 08:43:00,16.0,9.0,29.97,WNW,287,0.0,1.0,72,0.00,,,-99.99,,2013-01-02 13:43:00,
2013-01-02 08:52:00,17.0,10.0,29.98,West,272,1.0,2.0,72,0.00,,,-99.99,,2013-01-02 13:52:00,
2013-01-02 09:02:00,17.0,10.0,29.98,West,272,1.0,2.0,72,0.00,,,-99.99,,2013-01-02 14:02:00,
2013-01-02 09:12:00,17.0,10.0,29.98,West,272,1.0,2.0,72,0.00,,,-99.99,,2013-01-02 14:12:00,
2013-01-02 09:22:00,18.0,10.0,29.98,West,276,1.0,3.0,70,0.00,,,-99.99,,2013-01-02 14:22:00,
2013-01-02 09:33:00,19.0,10.0,29.99,SW,235,1.0,3.0,68,0.00,,,-99.99,,2013-01-02 14:33:00,
2013-01-02 09:43:00,19.0,10.0,29.99,SW,235,1.0,3.0,68,0.00,,,-99.99,,2013-01-02 14:43:00,
2013-01-02 09:53:00,20.0,11.0,30.00,West,276,0.0,2.0,67,0.00,,,-99.99,,2013-01-02 14:53:00,
2013-01-02 10:03:00,21.0,11.0,30.01,WSW,249,2.0,4.0,64,0.00,,,-99.99,,2013-01-02 15:03:00,
2013-01-02 10:12:00,21.0,11.0,30.01,WSW,249,2.0,4.0,64,0.00,,,-99.99,,2013-01-02 15:12:00,
2013-01-02 10:23:00,22.0,11.0,30.01,West,270,2.0,5.0,63,0.00,,,-99.99,,2013-01-02 15:23:00,
2013-01-02 10:33:00,22.0,11.0,30.01,West,270,2.0,5.0,63,0.00,,,-99.99,,2013-01-02 15:33:00,
2013-01-02 10:43:00,22.0,11.0,30.01,West,270,2.0,5.0,63,0.00,,,-99.99,,2013-01-02 15:43:00,
2013-01-02 10:53:00,23.0,12.0,30.01,SW,236,3.0,6.0,61,0.00,,,-99.99,,2013-01-02 15:53:00,
2013-01-02 11:03:00,23.0,12.0,30.01,SW,236,3.0,6.0,61,0.00,,,-99.99,,2013-01-02 16:03:00,
2013-01-02 11:13:00,23.0,12.0,30.01,SW,236,3.0,6.0,61,0.00,,,-99.99,,2013-01-02 16:13:00,
2013-01-02 11:22:00,23.0,12.0,29.99,West,266,3.0,6.0,61,0.00,,,-99.99,,2013-01-02 16:22:00,
2013-01-02 11:33:00,23.0,12.0,29.99,WSW,256,3.0,7.0,62,0.00,,,-99.99,,2013-01-02 16:33:00,
2013-01-02 11:43:00,23.0,12.0,29.99,WSW,256,3.0,7.0,62,0.00,,,-99.99,,2013-01-02 16:43:00,
2013-01-02 11:53:00,23.0,12.0,29.99,WSW,256,3.0,7.0,62,0.00,,,-99.99,,2013-01-02 16:53:00,
2013-01-02 12:03:00,23.0,12.0,29.99,WSW,256,3.0,7.0,62,0.00,,,-99.99,,2013-01-02 17:03:00,
2013-01-02 12:13:00,23.0,12.0,29.99,WSW,256,3.0,7.0,62,0.00,,,-99.99,,2013-01-02 17:13:00,
2013-01-02 12:23:00,23.0,12.0,29.97,SW,232,2.0,5.0,62,0.00,,,-99.99,,2013-01-02 17:23:00,
2013-01-02 12:33:00,23.0,12.0,29.96,SW,232,2.0,4.0,62,0.00,,,-99.99,,2013-01-02 17:33:00,
2013-01-02 12:43:00,23.0,12.0,29.96,SW,232,2.0,4.0,62,0.00,,,-99.99,,2013-01-02 17:43:00,
2013-01-02 12:53:00,23.0,12.0,29.96,SW,232,2.0,4.0,62,0.00,,,-99.99,,2013-01-02 17:53:00,
2013-01-02 13:03:00,25.0,13.0,29.96,NNE,32,0.0,3.0,61,0.00,,,-99.99,,2013-01-02 18:03:00,
2013-01-02 13:13:00,25.0,13.0,29.96,NNE,32,0.0,3.0,61,0.00,,,-99.99,,2013-01-02 18:13:00,
2013-01-02 13:23:00,25.0,13.0,29.96,West,259,1.0,3.0,61,0.00,,,-99.99,,2013-01-02 18:23:00,
2013-01-02 13:33:00,25.0,13.0,29.95,WNW,293,1.0,3.0,60,0.00,,,-99.99,,2013-01-02 18:33:00,
2013-01-02 13:43:00,25.0,13.0,29.95,WNW,293,1.0,3.0,60,0.00,,,-99.99,,2013-01-02 18:43:00,
2013-01-02 13:53:00,25.0,13.0,29.95,WNW,293,1.0,3.0,60,0.00,,,-99.99,,2013-01-02 18:53:00,
2013-01-02 14:03:00,27.0,15.0,29.95,NW,305,0.0,3.0,59,0.00,,,-99.99,,2013-01-02 19:03:00,
2013-01-02 14:13:00,27.0,15.0,29.95,NW,305,0.0,3.0,59,0.00,,,-99.99,,2013-01-02 19:13:00,
2013-01-02 14:23:00,27.0,14.0,29.96,WNW,288,1.0,5.0,58,0.00,,,-99.99,,2013-01-02 19:23:00,
2013-01-02 14:33:00,27.0,14.0,29.96,WNW,288,1.0,5.0,58,0.00,,,-99.99,,2013-01-02 19:33:00,
2013-01-02 14:43:00,27.0,14.0,29.96,WNW,288,1.0,5.0,58,0.00,,,-99.99,,2013-01-02 19:43:00,
2013-01-02 14:53:00,27.0,14.0,29.97,WNW,290,2.0,9.0,58,0.00,,,-99.99,,2013-01-02 19:53:00,
2013-01-02 15:03:00,27.0,14.0,29.97,SW,231,2.0,9.0,58,0.00,,,-99.99,,2013-01-02 20:03:00,
2013-01-02 15:12:00,27.0,14.0,29.97,SW,231,2.0,9.0,58,0.00,,,-99.99,,2013-01-02 20:12:00,
2013-01-02 15:23:00,27.0,15.0,29.98,West,281,3.0,7.0,59,0.00,,,-99.99,,2013-01-02 20:23:00,
2013-01-02 15:33:00,27.0,15.0,29.98,West,281,3.0,7.0,59,0.00,,,-99.99,,2013-01-02 20:33:00,
2013-01-02 15:42:00,27.0,15.0,29.98,West,281,3.0,7.0,59,0.00,,,-99.99,,2013-01-02 20:42:00,
2013-01-02 15:53:00,27.0,15.0,30.00,WNW,300,2.0,6.0,59,0.00,,,-99.99,,2013-01-02 20:53:00,
2013-01-02 16:03:00,28.0,16.0,30.00,WNW,289,3.0,7.0,60,0.00,,,-99.99,,2013-01-02 21:03:00,
2013-01-02 16:13:00,28.0,16.0,30.00,WNW,289,3.0,7.0,60,0.00,,,-99.99,,2013-01-02 21:13:00,
2013-01-02 16:22:00,28.0,16.0,30.00,WNW,301,2.0,8.0,60,0.00,,,-99.99,,2013-01-02 21:22:00,
2013-01-02 16:33:00,28.0,16.0,30.00,WNW,301,2.0,8.0,60,0.00,,,-99.99,,2013-01-02 21:33:00,
2013-01-02 16:43:00,28.0,16.0,30.00,WNW,301,2.0,8.0,60,0.00,,,-99.99,,2013-01-02 21:43:00,
2013-01-02 16:52:00,28.0,16.0,30.00,WNW,301,2.0,8.0,60,0.00,,,-99.99,,2013-01-02 21:52:00,
2013-01-02 17:03:00,28.0,16.0,30.02,WNW,288,2.0,9.0,59,0.00,,,-99.99,,2013-01-02 22:03:00,
2013-01-02 17:13:00,28.0,16.0,30.02,WNW,288,2.0,9.0,59,0.00,,,-99.99,,2013-01-02 22:13:00,
2013-01-02 17:22:00,28.0,16.0,30.02,WNW,288,2.0,9.0,59,0.00,,,-99.99,,2013-01-02 22:22:00,
2013-01-02 17:32:00,28.0,16.0,30.02,WNW,288,2.0,9.0,59,0.00,,,-99.99,,2013-01-02 22:32:00,
2013-01-02 17:42:00,28.0,16.0,30.02,WNW,288,2.0,9.0,59,0.00,,,-99.99,,2013-01-02 22:42:00,
2013-01-02 17:53:00,28.0,16.0,30.03,East,96,2.0,6.0,59,0.00,,,-99.99,,2013-01-02 22:53:00,
2013-01-02 18:03:00,28.0,16.0,30.03,East,96,2.0,6.0,59,0.00,,,-99.99,,2013-01-02 23:03:00,
2013-01-02 18:13:00,28.0,16.0,30.04,NE,34,3.0,8.0,59,0.00,,,-99.99,,2013-01-02 23:13:00,
2013-01-02 18:23:00,28.0,16.0,30.04,NE,34,3.0,8.0,59,0.00,,,-99.99,,2013-01-02 23:23:00,
2013-01-02 18:33:00,27.0,15.0,30.05,NW,314,2.0,8.0,61,0.00,,,-99.99,,2013-01-02 23:33:00,
2013-01-02 18:43:00,27.0,15.0,30.05,NW,314,2.0,8.0,61,0.00,,,-99.99,,2013-01-02 23:43:00,
2013-01-02 18:52:00,27.0,15.0,30.06,WNW,282,1.0,5.0,61,0.00,,,-99.99,,2013-01-02 23:52:00,
2013-01-02 19:02:00,27.0,16.0,30.06,WNW,302,2.0,5.0,62,0.00,,,-99.99,,2013-01-03 00:02:00,
2013-01-02 19:12:00,27.0,16.0,30.06,WNW,302,2.0,5.0,62,0.00,,,-99.99,,2013-01-03 00:12:00,
2013-01-02 19:22:00,26.0,17.0,30.06,NNW,340,3.0,9.0,67,0.00,,,-99.99,,2013-01-03 00:22:00,
2013-01-02 19:38:00,26.0,17.0,30.06,WNW,293,3.0,7.0,67,0.00,,,-99.99,,2013-01-03 00:38:00,
2013-01-02 19:53:00,26.0,17.0,30.06,West,270,2.0,6.0,68,0.00,,,-99.99,,2013-01-03 00:53:00,
2013-01-02 20:02:00,26.0,17.0,30.06,West,270,2.0,6.0,68,0.00,,,-99.99,,2013-01-03 01:02:00,
2013-01-02 20:12:00,26.0,17.0,30.06,West,270,2.0,6.0,68,0.00,,,-99.99,,2013-01-03 01:12:00,
2013-01-02 20:22:00,26.0,17.0,30.06,NW,311,3.0,7.0,68,0.00,,,-99.99,,2013-01-03 01:22:00,
2013-01-02 20:32:00,26.0,16.0,30.07,WNW,285,4.0,9.0,65,0.00,,,-99.99,,2013-01-03 01:32:00,
2013-01-02 20:43:00,26.0,16.0,30.07,WNW,285,4.0,9.0,65,0.00,,,-99.99,,2013-01-03 01:43:00,
2013-01-02 20:52:00,26.0,16.0,30.07,WNW,285,4.0,9.0,65,0.00,,,-99.99,,2013-01-03 01:52:00,
2013-01-02 21:02:00,25.0,15.0,30.06,WNW,298,3.0,9.0,65,0.00,,,-99.99,,2013-01-03 02:02:00,
2013-01-02 21:12:00,25.0,15.0,30.06,WNW,298,3.0,9.0,65,0.00,,,-99.99,,2013-01-03 02:12:00,
2013-01-02 21:23:00,25.0,15.0,30.06,WNW,298,3.0,9.0,65,0.00,,,-99.99,,2013-01-03 02:23:00,
2013-01-02 21:33:00,25.0,15.0,30.06,WNW,298,3.0,9.0,65,0.00,,,-99.99,,2013-01-03 02:33:00,
2013-01-02 21:42:00,25.0,15.0,30.06,WNW,298,3.0,9.0,65,0.00,,,-99.99,,2013-01-03 02:42:00,
2013-01-02 22:02:00,24.0,14.0,30.08,NNW,340,3.0,11.0,64,0.00,,,-99.99,,2013-01-03 03:02:00,
2013-01-02 22:12:00,24.0,14.0,30.09,NNE,18,2.0,6.0,64,0.00,,,-99.99,,2013-01-03 03:12:00,
2013-01-02 22:22:00,24.0,14.0,30.09,NNE,18,2.0,6.0,64,0.00,,,-99.99,,2013-01-03 03:22:00,
2013-01-02 22:46:00,24.0,14.0,30.09,NNE,18,2.0,6.0,64,0.00,,,-99.99,,2013-01-03 03:46:00,
2013-01-02 22:53:00,23.0,12.0,30.09,WNW,287,2.0,8.0,62,0.00,,,-99.99,,2013-01-03 03:53:00,
2013-01-02 23:02:00,23.0,12.0,30.10,NNW,342,3.0,8.0,61,0.00,,,-99.99,,2013-01-03 04:02:00,
2013-01-02 23:12:00,23.0,12.0,30.10,NNW,342,3.0,8.0,61,0.00,,,-99.99,,2013-01-03 04:12:00,
2013-01-02 23:22:00,23.0,12.0,30.10,NW,314,2.0,5.0,61,0.00,,,-99.99,,2013-01-03 04:22:00,
2013-01-02 23:32:00,23.0,10.0,30.11,WNW,298,4.0,11.0,57,0.00,,,-99.99,,2013-01-03 04:32:00,
2013-01-02 23:42:00,23.0,10.0,30.11,WNW,298,4.0,11.0,57,0.00,,,-99.99,,2013-01-03 04:42:00,
2013-01-02 23:52:00,23.0,10.0,30.11,WNW,298,4.0,11.0,57,0.00,,,-99.99,,2013-01-03 04:52:00,